This demonstration page uses our WeatherBlox Daily Observations layout. Learn more.

Left ArrowRight Arrow

Hourly Observations for November 18, 2022

Temp ( °F °C ) Dew Point ( °F °C ) Humidity (%) Winds ( mph kmh ) Pressure ( in mb ) Visibility ( mi km ) Precip ( " mm )
12:56 am 00:56 Clear 12 -11.1 3 -16.1 66 66 NNW 17 28 30.55 1035 10 16 0.00 0.00
1:56 am 01:56 Clear 11 -11.7 1 -17.2 64 64 NNW 12 19 30.56 1035 10 16 0.00 0.00
2:56 am 02:56 Clear 9 -12.8 1 -17.2 69 69 NW 8 13 30.55 1035 10 16 0.00 0.00
3:56 am 03:56 Mostly Clear 8 -13.3 1 -17.2 72 72 WNW 9 15 30.55 1035 10 16 0.00 0.00
4:56 am 04:56 Clear 8 -13.3 2 -16.7 75 75 WNW 12 19 30.56 1035 10 16 0.00 0.00
5:56 am 05:56 Clear 7 -13.9 1 -17.2 76 76 WNW 12 19 30.55 1035 10 16 0.00 0.00
6:56 am 06:56 Clear 7 -13.9 1 -17.2 76 76 WNW 13 20 30.55 1035 10 16 0.00 0.00
7:56 am 07:56 Sunny 9 -12.8 2 -16.7 72 72 W 10 17 30.56 1035 10 16 0.00 0.00
8:56 am 08:56 Sunny 14 -10 3 -16.1 61 61 WNW 16 26 30.56 1035 10 16 0.00 0.00
9:56 am 09:56 Sunny 18 -7.8 4 -15.6 53 53 WNW 18 30 30.55 1035 10 16 0.00 0.00
10:56 am 10:56 Sunny 21 -6.1 5 -15 49 49 NW 16 26 30.54 1034 10 16 0.00 0.00
11:56 am 11:56 Sunny 23 -5 5 -15 45 45 NW 13 20 30.50 1033 10 16 0.00 0.00
12:56 pm 12:56 Sunny 25 -3.9 5 -15 42 42 WNW 15 24 30.46 1032 10 16 0.00 0.00
1:56 pm 13:56 Sunny 26 -3.3 5 -15 40 40 WNW 16 26 30.43 1031 10 16 0.00 0.00
2:56 pm 14:56 Sunny 28 -2.2 2 -16.7 32 32 WNW 16 26 30.40 1030 10 16 0.00 0.00
3:56 pm 15:56 Sunny 28 -2.2 0 -17.8 29 29 WNW 16 26 30.38 1029 10 16 0.00 0.00
4:56 pm 16:56 Sunny 26 -3.3 -1 -18.3 30 30 W 9 15 30.37 1028 10 16 0.00 0.00
5:56 pm 17:56 Clear 21 -6.1 0 -17.8 39 39 SW 7 11 30.37 1028 10 16 0.00 0.00
6:56 pm 18:56 Clear 20 -6.7 3 -16.1 47 47 SW 10 17 30.35 1028 10 16 0.00 0.00
7:56 pm 19:56 Clear 18 -7.8 1 -17.2 47 47 SW 10 17 30.34 1027 10 16 0.00 0.00
8:56 pm 20:56 Clear 17 -8.3 0 -17.8 46 46 SW 12 19 30.31 1027 10 16 0.00 0.00
9:56 pm 21:56 Clear 18 -7.8 2 -16.7 49 49 WSW 12 19 30.29 1026 10 16 0.00 0.00
10:56 pm 22:56 Clear 20 -6.7 4 -15.6 49 49 WSW 16 26 30.27 1025 10 16 0.00 0.00
11:56 pm 23:56 Clear 19 -7.2 5 -15 54 54 W 13 20 30.26 1025 10 16 0.00 0.00

Powered by AerisWeather